Hourly Weather Roundup
Issued by NWS Central Illinois

Home | Current Version | Previous Version | Text Only | Print | Product List | Glossary On
Versions: 1 2 3 4 5 6 7 8 9 10 11 12 13 14 15 16 17 18 19 20 21 22 23 24 25 26 27 28 29 30 31 32 33 34 35 36 37 38 39 40 41 42 43 44 45 46 47 48 49 50
876
NZUS43 KILX 162210
HWRILX

Area Weather Roundup
National Weather Service Lincoln IL
500 PM CDT WED AUG 16 2017

NOTE:  "FAIR" indicates few or no clouds below 12,000 feet, with
       no sigificant weather and/or obstructions to visibility.


CITY           SKY/WX    TMP DP  RH WIND       PRES   REMARKS
Bloomington    CLOUDY    80  73  79 S16       29.88F HX  84
Champaign      CLOUDY    81  74  79 S10       29.91F HX  86
Danville       CLOUDY    82  73  76 S8        29.91S HX  87
Decatur        CLOUDY    80  74  81 S14       29.89F HX  85
Effingham      CLOUDY    84  77  80 SE10      29.92F HX  94
Flora          CLOUDY    88  75  66 S10       29.92S HX  98
Galesburg      MOSUNNY   81  71  71 S9G25     29.82R HX  85
Jacksonville   LGT RAIN  81  74  81 SE12      29.82F HX  86
Lacon          CLOUDY    84  73  69 S15       29.82F HX  91
Lawrenceville  CLOUDY    86  75  69 S6        29.94S HX  95
Litchfield     CLOUDY    82  76  81 SE6       29.89R HX  90
$$


CITY           SKY/WX    TMP DP  RH WIND       PRES   REMARKS
Lincoln        MOSUNNY   81  76  84 S14       29.86F HX  87
Macomb         CLOUDY    81  72  73 S12G17    29.84R HX  85
Mattoon        CLOUDY    81  77  88 S9        29.91F HX  88
Mt Carmel AP   CLOUDY    85  74  71 S8        29.94R HX  92
Olney-Noble AP CLOUDY    86  78  77 S8        29.93S HX  98
Paris AP       CLOUDY    83  74  75 S10       29.94S HX  89
Peoria         CLOUDY    83  74  74 S15       29.83F HX  89
Pontiac        CLOUDY    82  78  85 SE14      29.88F HX  91
Rantoul        CLOUDY    83  76  79 S10       29.91F HX  91
Robinson       CLOUDY    82  74  76 S5        29.95R HX  89
Springfield    PTSUNNY   83  75  77 SE14G21   29.85F HX  90
Taylorville    MOSUNNY   82  76  82 S8        29.88F HX  88
$$

...REGIONAL REPORTS...


CITY           SKY/WX    TMP DP  RH WIND       PRES   REMARKS
Chicago O`Hare LGT RAIN  83  69  62 S18G26    29.89R HX  86
Kankakee       CLOUDY    81  73  76 SW7       29.92S HX  85
Moline         CLOUDY    84  71  65 S12       29.80R HX  89
Mount Sterling CLOUDY    78  74  87 SE7       29.82F HX  81
Mount Vernon   CLOUDY    88  77  69 S6        29.92S HX 100
Pittsfield     TSTM      78  76  92 S7        29.84S HX  81
Quincy         LGT RAIN  79  74  84 S9        29.80F HX  82
Rockford       LGT RAIN  77  72  84 SE15G23   29.88F
$$


CITY           SKY/WX    TMP DP  RH WIND       PRES   REMARKS
Burlington     CLOUDY    81  73  76 S9        29.82R HX  86
Cedar Rapids   CLOUDY    81  73  76 S12G21    29.78F HX  86
Des Moines     MOSUNNY   85  70  60 SW15      29.73F HX  89
Kirksville     CLOUDY    82  74  76 S15G22    29.83S HX  88
Ottumwa        CLOUDY    85  71  63 S15G25    29.77F HX  90
St Louis       TSTM      74  74 100 SW16G35   29.96R VSB 3/4
$$


CITY           SKY/WX    TMP DP  RH WIND       PRES   REMARKS
Terre Haute    MOSUNNY   85  73  67 S9        29.94S HX  91
Evansville     CLOUDY    87  73  62 E6        29.94S HX  94
Indianapolis   CLOUDY    87  71  58 SW9       29.94S HX  93
Lafayette      CLOUDY    86  71  60 S7        29.92S HX  91
Madison        CLOUDY    81  70  69 E12       29.85F HX  84
Milwaukee      PTSUNNY   76  66  71 E12       29.92F
$$






USA.gov is the U.S. government's official web portal to all federal, state and local government web resources and services.